Date String (YYYY-MM-DD hh:mm:ss) UTC,Instrument flags,Ambient pressure (hPa),Sample flow (lpm),Bypass flow (lpm),Sample temperature (°C),Ambient temperature (°C),ASC tube jacket temperature (°C),LED temperature (°C),Box temperature (°C),Sample RH (%),Span deviation,Mass concentration (μg/m³),Mass concentration (μg/m³),Mass concentration (μg/m³)
DateTimeUTC,F1_M11,P_M11,Q1_M11,Q2_M11,T1_M11,T2_M11,T3_M11,T4_M11,T5_M11,U1_M11,ZSPAN_M11,X0_M11,X2_M11,X1_M11
2022-12-09 11:00:00,,0825.8,5.02,0.00,22.1,20.5,00.0,31.0,23.8,05.6,0000.0,0001.90,0001.13,0000.85
2022-12-09 11:01:00,,0825.8,5.01,0.00,22.0,20.4,00.0,30.9,23.8,05.7,0000.0,0001.82,0001.11,0000.84
2022-12-09 11:02:00,,0825.7,4.99,0.00,22.0,20.4,00.0,30.9,23.8,05.9,0000.0,0001.83,0001.11,0000.83
2022-12-09 11:03:00,,0825.7,4.98,0.00,22.1,21.0,00.0,30.9,23.9,06.0,0000.0,0001.90,0001.16,0000.84
2022-12-09 11:04:00,,0825.7,5.00,0.00,22.1,21.9,00.0,30.9,24.1,06.0,0000.0,0001.95,0001.18,0000.84
2022-12-09 11:05:00,,0825.7,5.01,0.00,22.2,21.9,00.0,30.9,24.1,06.0,0000.0,0001.99,0001.19,0000.83
2022-12-09 11:06:00,,0825.6,5.01,0.00,22.2,21.6,00.0,31.0,24.1,06.0,0000.0,0002.16,0001.21,0000.83
2022-12-09 11:07:00,,0825.6,5.00,0.00,22.2,21.3,00.0,31.0,24.0,05.9,0000.0,0002.04,0001.13,0000.82
2022-12-09 11:08:00,,0825.6,4.98,0.00,22.2,21.1,00.0,31.0,24.0,05.7,0000.0,0001.98,0001.12,0000.80
2022-12-09 11:09:00,,0825.6,5.00,0.00,22.1,20.8,00.0,31.0,23.9,05.7,0000.0,0002.05,0001.09,0000.79
2022-12-09 11:10:00,,0825.6,5.02,0.00,22.1,20.5,00.0,31.0,23.8,05.9,0000.0,0001.98,0001.07,0000.77
2022-12-09 11:11:00,,0825.6,5.00,0.00,22.0,20.3,00.0,31.0,23.7,06.1,0000.0,0001.84,0001.02,0000.76
2022-12-09 11:12:00,,0825.6,4.99,0.00,22.0,20.1,00.0,31.0,23.7,06.2,0000.0,0001.88,0001.03,0000.76
2022-12-09 11:13:00,,0825.6,5.00,0.00,21.9,20.0,00.0,30.9,23.6,06.1,0000.0,0001.91,0001.04,0000.76
2022-12-09 11:14:00,,0825.6,5.02,0.00,21.9,20.0,00.0,30.9,23.6,06.0,0000.0,0001.84,0001.00,0000.75
2022-12-09 11:15:00,,0825.6,4.98,0.00,21.9,19.9,00.0,30.9,23.5,05.7,0000.0,0001.82,0000.98,0000.75
2022-12-09 11:16:00,,0825.6,5.01,0.00,21.8,19.9,00.0,30.9,23.5,05.8,0000.0,0001.83,0000.99,0000.75
2022-12-09 11:17:00,,0825.6,5.02,0.00,21.9,20.8,00.0,30.8,23.7,06.4,0000.0,0001.80,0001.04,0000.77
2022-12-09 11:18:00,,0825.6,4.98,0.00,22.0,21.7,00.0,30.8,23.9,06.6,0000.0,0002.65,0001.11,0000.81
2022-12-09 11:19:00,,0825.7,4.99,0.00,22.1,22.1,00.0,30.8,24.0,06.8,0000.0,0003.25,0001.20,0000.85
2022-12-09 11:20:00,,0825.8,4.99,0.00,22.0,21.5,00.0,30.8,23.9,06.8,0000.0,0003.55,0001.31,0000.89
2022-12-09 11:21:00,,0826.1,5.02,0.00,22.0,21.1,00.0,30.9,23.8,06.8,0000.0,0004.38,0001.44,0000.94
2022-12-09 11:22:00,,0826.2,5.01,0.00,22.0,20.6,00.0,30.9,23.7,06.8,0000.0,0004.75,0001.53,0000.98
2022-12-09 11:23:00,,0825.8,4.99,0.00,21.9,20.2,00.0,30.9,23.5,06.9,0000.0,0005.47,0001.63,0001.02
2022-12-09 11:24:00,,0825.7,4.99,0.00,21.8,19.9,00.0,30.8,23.4,06.9,0000.0,0005.71,0001.72,0001.07
2022-12-09 11:25:00,,0825.6,5.03,0.00,21.7,19.6,00.0,30.8,23.3,06.9,0000.0,0005.97,0001.83,0001.10
2022-12-09 11:26:00,,0825.6,4.99,0.00,21.7,19.5,00.0,30.8,23.2,06.8,0000.0,0006.14,0001.90,0001.14
2022-12-09 11:27:00,,0825.6,4.98,0.00,21.6,19.3,00.0,30.8,23.1,06.8,0000.0,0006.37,0001.99,0001.16
2022-12-09 11:28:00,,0825.7,5.02,0.00,21.5,19.2,00.0,30.7,23.1,06.9,0000.0,0006.84,0002.05,0001.16
2022-12-09 11:29:00,,0825.6,4.99,0.00,21.6,20.1,00.0,30.6,23.2,07.0,0000.0,0007.28,0002.11,0001.16
2022-12-09 11:30:00,,0825.6,5.00,0.00,21.7,21.3,00.0,30.6,23.5,06.9,0000.0,0007.58,0002.16,0001.16
2022-12-09 11:31:00,,0825.7,5.01,0.00,21.8,22.0,00.0,30.6,23.7,06.7,0000.0,0008.01,0002.14,0001.16
2022-12-09 11:32:00,,0825.6,5.00,0.00,21.8,21.6,00.0,30.6,23.7,06.7,0000.0,0007.55,0002.06,0001.14
2022-12-09 11:33:00,,0825.6,4.99,0.00,21.8,20.9,00.0,30.7,23.5,06.8,0000.0,0008.79,0002.06,0001.15
2022-12-09 11:34:00,,0825.6,5.01,0.00,21.7,20.3,00.0,30.7,23.4,07.0,0000.0,0008.64,0002.06,0001.14
2022-12-09 11:35:00,,0825.5,5.01,0.00,21.6,20.0,00.0,30.6,23.3,07.1,0000.0,0008.84,0002.11,0001.14
2022-12-09 11:36:00,,0825.5,4.98,0.00,21.6,19.7,00.0,30.6,23.2,07.1,0000.0,0009.02,0002.18,0001.16
2022-12-09 11:37:00,,0825.5,4.99,0.00,21.5,19.5,00.0,30.6,23.1,07.2,0000.0,0009.37,0002.24,0001.20
2022-12-09 11:38:00,,0825.5,5.02,0.00,21.5,19.3,00.0,30.6,23.1,07.2,0000.0,0010.20,0002.35,0001.24
2022-12-09 11:39:00,,0825.4,4.98,0.00,21.4,19.2,00.0,30.6,23.0,07.1,0000.0,0010.24,0002.39,0001.27
2022-12-09 11:40:00,,0825.5,5.02,0.00,21.4,19.1,00.0,30.5,23.0,07.1,0000.0,0010.29,0002.53,0001.31
2022-12-09 11:41:00,,0825.5,5.00,0.00,21.4,19.7,00.0,30.5,23.0,07.1,0000.0,0010.09,0002.55,0001.34
2022-12-09 11:42:00,,0825.4,4.99,0.00,21.5,21.0,00.0,30.4,23.3,07.0,0000.0,0009.60,0002.63,0001.34
2022-12-09 11:43:00,,0825.5,4.99,0.00,21.6,21.6,00.0,30.4,23.5,06.9,0000.0,0009.69,0002.69,0001.36
2022-12-09 11:44:00,,0825.5,5.00,0.00,21.6,21.2,00.0,30.5,23.5,07.0,0000.0,0009.25,0002.74,0001.37
2022-12-09 11:45:00,,0825.5,5.00,0.00,21.6,20.8,00.0,30.5,23.4,07.0,0000.0,0008.94,0002.81,0001.40
2022-12-09 11:46:00,,0825.4,5.02,0.00,21.6,20.3,00.0,30.5,23.2,07.0,0000.0,0009.17,0002.79,0001.43
2022-12-09 11:47:00,,0825.4,4.99,0.00,21.5,20.0,00.0,30.5,23.2,07.0,0000.0,0009.01,0002.76,0001.43
2022-12-09 11:48:00,,0825.4,4.98,0.00,21.5,19.7,00.0,30.5,23.1,07.0,0000.0,0009.03,0002.79,0001.42
2022-12-09 11:49:00,,0825.5,5.02,0.00,21.4,19.5,00.0,30.4,23.0,07.0,0000.0,0008.43,0002.83,0001.41
2022-12-09 11:50:00,,0825.5,4.99,0.00,21.4,19.2,00.0,30.4,22.9,07.1,0000.0,0008.41,0002.82,0001.41
2022-12-09 11:51:00,,0825.4,4.99,0.00,21.3,19.2,00.0,30.4,22.9,07.0,0000.0,0008.81,0002.75,0001.41
2022-12-09 11:52:00,,0825.4,5.01,0.00,21.3,20.2,00.0,30.3,23.0,07.1,0000.0,0008.98,0002.69,0001.41
2022-12-09 11:53:00,,0825.4,5.00,0.00,21.5,21.4,00.0,30.3,23.3,07.0,0000.0,0008.91,0002.65,0001.41
2022-12-09 11:54:00,,0825.4,4.99,0.00,21.5,21.5,00.0,30.3,23.4,06.9,0000.0,0008.95,0002.64,0001.42
2022-12-09 11:55:00,,0825.5,4.99,0.00,21.5,21.1,00.0,30.4,23.4,06.9,0000.0,0009.21,0002.71,0001.42
2022-12-09 11:56:00,,0825.5,4.99,0.00,21.5,20.7,00.0,30.4,23.3,06.9,0000.0,0008.86,0002.63,0001.41
2022-12-09 11:57:00,,0825.4,5.01,0.00,21.5,20.3,00.0,30.4,23.3,06.9,0000.0,0009.01,0002.62,0001.41
2022-12-09 11:58:00,,0825.4,5.02,0.00,21.5,20.2,00.0,30.4,23.2,06.6,0000.0,0008.71,0002.54,0001.40
2022-12-09 11:59:00,,0825.4,4.98,0.00,21.5,20.1,00.0,30.4,23.2,06.8,0000.0,0008.65,0002.49,0001.39
